Retour au catalogue

STARLINK-36535

ActifCommunicationsVLEO
NORAD 67986·PAYLOAD·🇺🇸 United States

Lancé Feb 27, 2026 depuis Vandenberg Space Force Base

Loading…

Prochains Passages (prochaines 24 heures)

TLE

FraisSource: CelesTrak SupGP

Époque: Sep 14, 2026, 14:33 UTC

1 67986C 26039A   26257.60673611 -.00037929  00000+0 -13737-2 0  2579
2 67986  43.0010  62.4160 0001389 268.6530   9.1984 15.27600029    10

Suivez STARLINK-36535 en temps réel avec AllMySat

Download on the App Store